Canadian, TX

5:12 AM CDT on August 26, 2016 (GMT -0500)
Hemphill County

Weather History for KHHF - May, 2013

Change the Weather History Date:

Sunday, May 26, 2013

  Actual Average (KPPA) Record (KPPA)
Temperature  
Mean Temperature 82 °F -  
Max Temperature 95 °F 80 °F 95 °F (1990)
Min Temperature 68 °F 54 °F 42 °F (2011)
Cooling Degree Days 16    
Growing Degree Days 32 (Base 50)    
Moisture  
Dew Point 60 °F    
Average Humidity 54    
Maximum Humidity 90    
Minimum Humidity 28    
Precipitation  
Precipitation 0.00 in - - ()
Sea Level Pressure  
Sea Level Pressure 29.88 in    
Wind  
Wind Speed 17 mph (South)    
Max Wind Speed 25 mph    
Max Gust Speed 41 mph    
Visibility 10 miles    
Events Thunderstorm    
Averages and records for this station are not official NWS values.
T = Trace of Precipitation, MM = Missing Value Source: NWS Daily Summary

Daily Weather History Graph

Daily Weather History Graph

Search for Another Location

Airport or City:

Trip Planner

Search our weather history database for the weather conditions in past years. The results will help you decide how hot, cold, wet, or windy it might be!

Date:

Astronomy

May. 26, 2013 Rise Set
Actual Time 6:28 AM CDT 8:48 PM CDT
Civil Twilight 5:59 AM CDT 9:18 PM CDT
Nautical Twilight 5:23 AM CDT 9:54 PM CDT
Astronomical Twilight 4:44 AM CDT 10:33 PM CDT
Moon 10:39 PM CDT 7:59 AM CDT
Length of Visible Light 15h 18m
Length of Day
14h 20m
Waning Gibbous, 96% of the Moon is Illuminated
May 26
Waning Gibbous
May 31
Last Quarter
Jun 8
New
Jun 16
First Quarter
Jun 23
Full

Hourly Weather History & Observations

Time (CDT) Temp. Heat Index Dew Point Humidity Pressure Visibility Wind Dir Wind Speed Gust Speed Precip Events Conditions
12:15 AM 75.4 °F - 63.7 °F 67% 29.94 in 10.0 mi South 21.9 mph 32.2 mph N/A   Clear
12:35 AM 75.2 °F - 64.0 °F 68% 29.92 in 10.0 mi South 21.9 mph 32.2 mph N/A   Clear
12:55 AM 75.2 °F - 64.6 °F 69% 29.91 in 10.0 mi South 23.0 mph 33.4 mph N/A   Clear
1:15 AM 74.1 °F - 64.2 °F 71% 29.90 in 10.0 mi SSE 21.9 mph 28.8 mph N/A   Clear
1:35 AM 73.8 °F - 64.4 °F 72% 29.90 in 10.0 mi SSE 15.0 mph 26.5 mph N/A   Clear
1:55 AM 73.4 °F - 64.4 °F 73% 29.91 in 10.0 mi South 17.3 mph 28.8 mph N/A   Clear
2:15 AM 72.7 °F - 64.4 °F 75% 29.91 in 10.0 mi South 21.9 mph 28.8 mph N/A   Clear
2:35 AM 72.5 °F - 64.2 °F 75% 29.92 in 10.0 mi South 11.5 mph 21.9 mph N/A   Clear
2:55 AM 72.5 °F - 64.4 °F 76% 29.92 in 10.0 mi SSE 11.5 mph 18.4 mph N/A   Clear
3:15 AM 72.1 °F - 64.4 °F 77% 29.92 in 10.0 mi South 12.7 mph - N/A   Clear
3:35 AM 71.6 °F - 64.4 °F 78% 29.92 in 10.0 mi South 9.2 mph - N/A   Clear
3:55 AM 70.7 °F - 64.4 °F 80% 29.93 in 10.0 mi SE 6.9 mph - N/A   Clear
4:15 AM 70.0 °F - 64.4 °F 82% 29.93 in 10.0 mi SSE 8.1 mph - N/A   Clear
4:35 AM 70.0 °F - 64.9 °F 84% 29.94 in 10.0 mi SSE 5.8 mph - N/A   Clear
4:55 AM 69.1 °F - 64.6 °F 86% 29.94 in 10.0 mi SSE 8.1 mph - N/A   Clear
5:15 AM 68.9 °F - 64.8 °F 87% 29.95 in 10.0 mi SSE 8.1 mph - N/A   Clear
5:35 AM 68.2 °F - 64.8 °F 89% 29.95 in 10.0 mi South 8.1 mph - N/A   Clear
5:55 AM 68.9 °F - 65.3 °F 88% 29.95 in 10.0 mi South 9.2 mph - N/A   Scattered Clouds
6:15 AM 68.4 °F - 65.3 °F 90% 29.95 in 10.0 mi South 9.2 mph - N/A   Scattered Clouds
6:35 AM 68.2 °F - 65.3 °F 90% 29.95 in 10.0 mi SSW 9.2 mph - N/A   Scattered Clouds
6:55 AM 68.5 °F - 65.5 °F 90% 29.96 in 10.0 mi SSW 11.5 mph - N/A   Mostly Cloudy
7:15 AM 68.9 °F - 65.5 °F 89% 29.97 in 10.0 mi SSW 13.8 mph - N/A   Mostly Cloudy
7:35 AM 70.0 °F - 66.2 °F 88% 29.97 in 10.0 mi SSW 8.1 mph - N/A   Scattered Clouds
7:55 AM 70.0 °F - 65.8 °F 87% 29.98 in 10.0 mi South 10.4 mph - N/A   Clear
8:15 AM 70.0 °F - 65.8 °F 87% 29.98 in 10.0 mi SSW 10.4 mph - N/A   Clear
8:35 AM 72.0 °F - 66.2 °F 82% 29.98 in 10.0 mi SSW 10.4 mph 16.1 mph N/A   Clear
8:55 AM 71.4 °F - 65.7 °F 82% 29.98 in 10.0 mi South 9.2 mph - N/A   Clear
9:15 AM 75.2 °F - 66.6 °F 74% 29.98 in 10.0 mi South 16.1 mph 23.0 mph N/A   Clear
9:35 AM 76.6 °F - 64.9 °F 67% 29.98 in 10.0 mi South 13.8 mph 23.0 mph N/A   Clear
9:55 AM 77.2 °F - 64.8 °F 65% 29.97 in 10.0 mi South 12.7 mph 17.3 mph N/A   Scattered Clouds
10:15 AM 78.8 °F - 64.0 °F 60% 29.96 in 10.0 mi South 16.1 mph 21.9 mph N/A   Scattered Clouds
10:35 AM 80.8 °F 82.0 °F 62.6 °F 54% 29.95 in 10.0 mi South 17.3 mph 24.2 mph N/A   Clear
10:55 AM 81.3 °F 82.1 °F 61.2 °F 50% 29.94 in 10.0 mi SSW 16.1 mph 24.2 mph N/A   Clear
11:15 AM 82.6 °F 83.1 °F 60.8 °F 48% 29.94 in 10.0 mi South 19.6 mph 26.5 mph N/A   Clear
11:35 AM 83.7 °F 83.9 °F 60.8 °F 46% 29.93 in 10.0 mi SSW 17.3 mph 26.5 mph N/A   Clear
11:55 AM 86.0 °F 85.0 °F 57.6 °F 38% 29.92 in 10.0 mi South 23.0 mph 28.8 mph N/A   Clear
12:15 PM 87.3 °F 85.9 °F 56.1 °F 35% 29.91 in 10.0 mi SSW 19.6 mph 29.9 mph N/A   Clear
12:35 PM 88.0 °F 86.1 °F 54.7 °F 32% 29.90 in 10.0 mi South 20.7 mph 27.6 mph N/A   Clear
12:55 PM 89.8 °F 87.9 °F 55.8 °F 31% 29.89 in 10.0 mi South 25.3 mph 29.9 mph N/A   Clear
1:15 PM 90.5 °F 88.7 °F 56.1 °F 31% 29.89 in 10.0 mi South 23.0 mph 33.4 mph N/A   Clear
1:35 PM 90.0 °F 88.1 °F 55.2 °F 31% 29.88 in 10.0 mi SSW 21.9 mph 33.4 mph N/A   Clear
1:55 PM 90.5 °F 88.3 °F 54.1 °F 29% 29.88 in 10.0 mi SSW 24.2 mph 29.9 mph N/A   Clear
2:15 PM 91.8 °F 89.5 °F 54.0 °F 28% 29.87 in 10.0 mi South 24.2 mph 33.4 mph N/A   Clear
2:35 PM 92.8 °F 91.1 °F 55.9 °F 29% 29.86 in 10.0 mi South 19.6 mph 28.8 mph N/A   Clear
2:55 PM 95.4 °F 94.6 °F 58.5 °F 29% 29.85 in 10.0 mi South 23.0 mph 31.1 mph N/A   Clear
3:15 PM 94.3 °F 93.0 °F 57.6 °F 29% 29.84 in 10.0 mi South 24.2 mph 41.4 mph N/A   Clear
3:35 PM 94.6 °F 93.5 °F 58.1 °F 29% 29.84 in 10.0 mi South 24.2 mph 31.1 mph N/A   Clear
3:55 PM 94.5 °F 93.3 °F 57.7 °F 29% 29.84 in 10.0 mi South 23.0 mph 33.4 mph N/A   Clear
4:15 PM 95.4 °F 94.2 °F 57.6 °F 28% 29.83 in 10.0 mi South 24.2 mph 29.9 mph N/A   Clear
4:35 PM 95.0 °F 93.7 °F 56.7 °F 28% 29.82 in 10.0 mi South 25.3 mph 32.2 mph N/A   Clear
4:55 PM 93.4 °F 91.5 °F 55.6 °F 28% 29.82 in 10.0 mi South 24.2 mph 31.1 mph N/A   Clear
5:15 PM 93.4 °F 91.5 °F 55.8 °F 28% 29.81 in 10.0 mi South 21.9 mph 33.4 mph N/A   Clear
5:35 PM 93.9 °F 92.2 °F 56.1 °F 28% 29.81 in 10.0 mi South 25.3 mph 38.0 mph N/A   Clear
5:55 PM 92.5 °F 90.7 °F 56.1 °F 29% 29.80 in 10.0 mi South 21.9 mph 35.7 mph N/A   Clear
6:15 PM 91.6 °F 89.8 °F 56.3 °F 30% 29.79 in 10.0 mi South 21.9 mph 32.2 mph N/A   Clear
6:35 PM 91.6 °F 89.8 °F 56.1 °F 30% 29.79 in 10.0 mi South 20.7 mph 31.1 mph N/A   Clear
6:55 PM 90.9 °F 89.2 °F 56.1 °F 31% 29.78 in 10.0 mi South 21.9 mph 31.1 mph N/A   Clear
7:15 PM 90.9 °F 89.2 °F 56.3 °F 31% 29.77 in 10.0 mi South 20.7 mph 32.2 mph N/A   Clear
7:35 PM 90.5 °F 89.0 °F 56.7 °F 32% 29.77 in 10.0 mi South 20.7 mph 32.2 mph N/A   Clear
7:55 PM 90.5 °F 89.0 °F 56.8 °F 32% 29.78 in 10.0 mi South 24.2 mph 33.4 mph N/A   Clear
8:15 PM 89.4 °F 87.7 °F 56.3 °F 32% 29.78 in 10.0 mi South 19.6 mph 26.5 mph N/A Thunderstorm Clear
8:35 PM 88.7 °F 87.1 °F 55.8 °F 33% 29.78 in 10.0 mi South 24.2 mph 29.9 mph N/A   Clear
8:55 PM 87.8 °F 85.9 °F 54.7 °F 32% 29.78 in 10.0 mi South 19.6 mph 27.6 mph N/A   Clear
9:15 PM 87.1 °F 85.1 °F 54.1 °F 32% 29.79 in 10.0 mi South 19.6 mph 26.5 mph N/A   Clear
9:35 PM 86.4 °F 84.4 °F 53.6 °F 32% 29.79 in 10.0 mi South 16.1 mph 26.5 mph N/A   Clear
9:55 PM 84.7 °F 83.7 °F 56.8 °F 38% 29.79 in 10.0 mi SSE 17.3 mph 23.0 mph N/A   Clear
10:15 PM 83.8 °F 83.3 °F 57.9 °F 41% 29.79 in 10.0 mi South 18.4 mph 25.3 mph N/A   Clear
10:35 PM 83.1 °F 82.7 °F 57.6 °F 42% 29.80 in 10.0 mi South 16.1 mph 24.2 mph N/A   Clear
10:55 PM 82.8 °F 82.4 °F 57.7 °F 42% 29.80 in 10.0 mi South 19.6 mph 25.3 mph N/A   Clear
11:15 PM 82.6 °F 82.2 °F 57.2 °F 42% 29.81 in 10.0 mi South 19.6 mph 26.5 mph N/A   Clear
11:35 PM 82.2 °F 81.9 °F 57.2 °F 42% 29.81 in 10.0 mi South 15.0 mph 24.2 mph N/A   Clear
11:55 PM 81.9 °F 81.9 °F 58.8 °F 45% 29.81 in 10.0 mi South 20.7 mph 25.3 mph N/A   Clear